Regional Weather Roundup
Issued by NWS

Home | Current Version | Previous Version | Text Only | Print | Product List | Glossary On
Versions: 1 2 3 4 5 6 7 8 9 10 11 12 13 14 15 16 17 18 19 20 21 22 23 24 25 26 27 28 29 30 31 32 33 34 35 36 37 38 39 40 41 42 43 44 45 46 47 48 49 50
000
ASUS43 KMKX 301421
RWRWI

WISCONSIN REGIONAL WEATHER ROUNDUP
NATIONAL WEATHER SERVICE MILWAUKEE/SULLIVAN WI
900 AM CDT TUE JUN 30 2015

NOTE: "FAIR" INDICATES FEW OR NO CLOUDS BELOW 12,000 FEET WITH NO
SIGNIFICANT WEATHER AND/OR OBSTRUCTIONS TO VISIBILITY.

WIZ001-002-006>008-014>016-023>028-301500-
NORTHWEST WISCONSIN

CITY           SKY/WX    TMP DP  RH WIND       PRES   REMARKS
SUPERIOR ARPT  CLOUDY    57  51  82 NE12      29.99R
ASHLAND        CLOUDY    53  53 100 NE8       29.98R FOG
HAYWARD        CLOUDY    57  52  83 N10       29.97R
SIREN          CLOUDY    61  58  91 NE7       29.96R
CUMBERLAND     CLOUDY    59  55  88 NE9       29.95R
RICE LAKE      CLOUDY    62  56  81 N8        29.96R
CHETEK         CLOUDY    62  59  90 N8        29.94R
LADYSMITH      PTSUNNY   63  56  79 N8        29.95R
EAU CLAIRE     PTSUNNY   65  58  78 NE10      29.91S
MENOMONIE      PTSUNNY   65  59  81 NE5       29.93S
NEW RICHMOND   PTSUNNY   63  60  88 NE6       29.94S
OSCEOLA        CLOUDY    64  63  99 NE7       29.97R
$$

WIZ003>005-009-010-017-018-301500-
NORTH CENTRAL WISCONSIN

CITY           SKY/WX    TMP DP  RH WIND       PRES   REMARKS
MANITOWISH WTR CLOUDY    53  51  92 N6        29.93S
ARBOR VITAE    CLOUDY    57  54  92 N13       29.92S FOG
WOODRUFF       CLOUDY    57  54  92 N13       29.92S FOG
RHINELANDER    CLOUDY    56  50  80 VRB7      29.91S
EAGLE RIVER    CLOUDY    53  52  95 N9        29.91S
LAND O LAKES   CLOUDY    51  50  95 N10       29.93S FOG
PHILLIPS       CLOUDY    57  53  84 N7        29.92S
TOMAHAWK       PTSUNNY   57  52  82 N6        29.92R
MEDFORD        CLOUDY    58  55  90 N10       29.92R
MERRILL        CLOUDY    62  56  83 N9        29.90S
$$

WIZ029-030-035-036-043>047-301500-
CENTRAL WISCONSIN

CITY           SKY/WX    TMP DP  RH WIND       PRES   REMARKS
WAUSAU         CLOUDY    62  54  74 N8G17     29.88R
MOSINEE        NOT AVBL
MARSHFIELD     CLOUDY    66  56  70 NE10      29.90R
STEVENS POINT  PTSUNNY   62  56  80 N8        29.88R
WAUPACA        MOSUNNY   68  61  77 NW12      29.86R
WAUTOMA        CLOUDY    65  62  90 N7        29.87R
WISC RAPIDS    CLOUDY    65  57  75 N12       29.89R
CAMP DOUGLAS   PTSUNNY   63  63 100 NW7       29.88S
$$

WIZ011>013-019>022-031-037>040-048>050-301500-
NORTHEAST WISCONSIN

CITY           SKY/WX    TMP DP  RH WIND       PRES   REMARKS
ANTIGO         CLOUDY    59  54  84 N16       29.88S
SHAWANO        CLOUDY    65  59  79 N10       29.85S
OCONTO         CLOUDY    62  60  96 N9G17     29.82S
STURGEON BAY   CLOUDY    63  57  82 N16       29.84R
GREEN BAY      CLOUDY    66  61  84 N10       29.82R
MANITOWOC      PTSUNNY   66  61  82 MISG      29.80R
APPLETON       CLOUDY    64  61  88 N12       29.85R
CLINTONVILLE   CLOUDY   N/A N/A N/A N8        29.85R
OSHKOSH        CLOUDY    65  59  81 NW13      29.83R
$$

WIZ032>034-041-042-053>061-301500-
SOUTHWEST WISCONSIN

CITY           SKY/WX    TMP DP  RH WIND       PRES   REMARKS
LA CROSSE      CLOUDY    62  59  90 N7        29.91R FOG
SPARTA         CLOUDY    59  58  97 CALM      29.91R FOG
VIROQUA        CLOUDY    60  60 100 N9        29.91R VSB 1
BOSCOBEL       CLOUDY    65  61  87 NE5       29.88R FOG
PRAIRIE DU CHI SUNNY     63  61  95 NW7       29.88R
PLATTEVILLE    SUNNY     65  63  91 N6        29.87R
$$

WIZ056-057-062-063-064-067-068-301500-
SOUTH CENTRAL WISCONSIN

CITY           SKY/WX    TMP DP  RH WIND       PRES   REMARKS
REEDSBURG      CLOUDY    62  60  93 NW6       29.88R
BARABOO/DELLS  CLOUDY    60  59  96 N5        29.88R
LONE ROCK      CLOUDY    62  59  90 N9        29.89R
MINERAL POINT  MOSUNNY   64  61  88 N7        29.88R
MADISON        CLOUDY    63  59  87 N9        29.85R FOG
MIDDLETON      CLOUDY    63  62  97 N10       29.86S
WATERTOWN      CLOUDY    63  63 100 N6        29.84S
MONROE         MOSUNNY   64  61  88 N6        29.85S
JANESVILLE     PTSUNNY   66  63  88 NW8       29.83S FOG
$$

WIZ051-052-058>065-066-070>072-301500-
SOUTHEAST WISCONSIN

CITY           SKY/WX    TMP DP  RH WIND       PRES   REMARKS
MILWAUKEE      CLOUDY    64  58  80 NW9       29.81R
WAUKESHA       CLOUDY    61  59  94 NW6       29.84R FOG
MILWAUKEE/TIMM SUNNY     64  57  77 W7        29.82R
RACINE         PTSUNNY   66  59  78 NW8       29.83R
BURLINGTON     PTSUNNY   62  59  90 NW9       29.83R
KENOSHA        SUNNY     67  60  78 NW7       29.82R
FOND DU LAC    CLOUDY    65  60  84 NW13      29.83R
SHEBOYGAN      MOSUNNY   67  61  81 NW10      29.80R
WEST BEND      CLOUDY    63  59  88 NW10      29.82R
JUNEAU         CLOUDY    62  59  91 NW7       29.85S
$$

LSZ147-162-301500-
LAKE SUPERIOR

STATION/POSITION TIME  TEMP    WIND        PRES    WAVE
                       AIR SEA DIR/SP/G            HT/PER
                 (UTC) (F)     (DEG/KT/KT) (MB)    (FT/S)
W MID LAKE BUOY  1350   42 38   10/  4/  6 1015.4R   1
DEVILS ISLAND    1400   54      40/ 14/ 15 1015.4R
SAXON HARBOR     1300   55      60/ 13/ 19 1014.2
$$

LMZ867-665-643>646-301500-
LAKE MICHIGAN

STATION/POSITION TIME  TEMP    WIND        PRES    WAVE
                       AIR SEA DIR/SP/G            HT/PER
                 (UTC) (F)     (DEG/KT/KT) (MB)    (FT/S)
CHAMBERS ISLAND  1300   63     310/ 14/ 17 1009.5R
S GREEN BAY BUOY 1200   65 71   20/ 12/ 16 1010.4R
N MID LAKE BUOY  1350   54 56   CALM  /  2 1009.5R   1
NORTHPORT PIER   1300   61     350/ 18/ 22 1009.5R
SISTER BAY       1314   62     360/ 15/ 20   N/A
ALGOMA LAKESHORE 1325          340/  3/  4   N/A
KEWAUNEE LAKESHO 1400   61      20/  5/  8 1008.7R
SHEBOYGAN LAKESH 1400   66     320/ 12/ 14 1008.9R
PORT WASHINGTON  1300   67     310/  7/ 12 1009.5R
ATWATER BUOY     1400   62 58  300/  6/  6 1010.7R
MILWAUKEE LAKESH 1400   65     290/  9/ 13   N/A
KENOSHA   LAKESH 1400   66     310/  6/ 10 1009.5R
$$

TC  - TEMPERATURE IN CELSIUS
VSB - VISIBILITY IN STATUTE MILES
WCI - WIND CHILL INDEX
HX  - HEAT INDEX



USA.gov is the U.S. government's official web portal to all federal, state and local government web resources and services.